Location: Arbon
(43.0005°N, 0.7472°E)
Time: 18:31:49
(UTC+00:00)

N. Korean satellite - Visible Passes

Search period start: 06 December 2021 00:00
Search period end: 16 December 2021 00:00
Orbit: 446 x 495 km, 97.3° (Epoch: 06 December)

Date Brightness Start Highest point End Pass type
(mag) Time Alt. Az. Time Alt. Az. Time Alt. Az.
06 Dec 6.3 05:28:17 10° N 05:31:38 61° WNW 05:34:57 10° SSW visible
06 Dec 10.4 17:39:24 10° W 17:39:43 10° W 17:40:03 10° W visible
07 Dec 7.2 04:59:47 10° NNE 05:03:06 51° E 05:06:24 10° S visible
07 Dec 9.3 17:08:09 10° SSW 17:10:59 22° W 17:13:46 10° NW visible
08 Dec 9.0 04:31:47 10° NE 04:34:27 21° E 04:37:07 10° SSE visible
08 Dec 7.7 06:04:57 10° NNW 06:07:33 21° WNW 06:10:08 10° WSW visible
09 Dec 6.6 05:35:52 10° N 05:39:09 47° WNW 05:42:24 10° SSW visible
10 Dec 6.7 05:07:15 10° NNE 05:10:37 66° E 05:13:59 10° S visible
10 Dec 9.6 17:16:04 10° SW 17:18:32 18° W 17:20:59 10° NW visible
11 Dec 8.6 04:41:36 26° E 04:41:59 26° E 04:44:54 10° SSE visible
11 Dec 8.0 06:15:43 16° W 06:15:43 16° W 06:17:15 10° WSW visible
11 Dec 8.1 16:46:32 10° S 16:49:50 40° W 16:53:07 10° NNW visible
12 Dec 9.8 04:13:16 12° E 04:13:16 12° E 04:14:35 10° ESE visible
12 Dec 7.2 05:47:22 32° WSW 05:47:22 32° WSW 05:49:44 10° SW visible
13 Dec 6.9 05:18:55 48° S 05:18:55 48° S 05:21:28 10° SSW visible
13 Dec 9.7 17:24:02 10° SW 17:26:01 14° W 17:28:00 10° WNW visible
14 Dec 8.3 04:50:23 28° SE 04:50:23 28° SE 04:52:32 10° SSE visible
14 Dec8.806:24:28WSW06:24:28WSW06:17:57Nvisible
14 Dec 8.6 16:54:08 10° SSW 16:57:16 32° W 17:00:23 10° NNW visible
15 Dec 9.6 04:21:48 13° ESE 04:21:48 13° ESE 04:22:41 10° SE visible
15 Dec 8.2 05:55:53 17° WSW 05:55:53 17° WSW 05:56:57 10° SW visible
